Spokane Fairchild, WA
on Tuesday, January 29, 2013

Tuesday
Previous Day Next Day
Daily Summary
 ActualAverage (KGEG)Record (KGEG)
Temperature
Mean Temperature °F 31°F  
Max Temperature 33°F 36°F 53°F (1967)
Min Temperature 24°F 26°F -24°F (1950)
Degree Days
Heating Degree Days 36 34  
Month to date heating degree days 1031  
Since 1 July heating degree days 3865  
Cooling Degree Days 0 0  
Month to date cooling degree days 0  
Year to date cooling degree days 0  
Moisture
Dew Point 29°F   
Average Humidity 100    
Maximum Humidity 100    
Minimum Humidity 100    
Precipitation
Precipitation 0.06 in 0.04 in 0.74 in (1890)
Month to date precipitation 1.69  
Year to date precipitation 1.69  
Snow
Snow 0.00 in 0.30 in 7.80 in (1961)
Month to date snowfall 10.9  
Since 1 July snowfall 33.0  
Snow Depth 3.00 in   
Wind
Wind Speed 3 mph   
Max Wind Speed 13 mph   
Max Gust Speed mph   
Visibility 4 miles   
Events Fog , Rain , Snow   

Key: T is trace of precipitation, MM is missing value
Source: NWS Daily Summary
Time(PST)TemperatureDew PointHumidity Pressure Visibility Wind DirectionWind SpeedGust SpeedPrecipitationEvents Conditions
12:08 AM 28.4°F 28.4°F 100% 29.82 in 2.5 miles Calm Calm - N/A   Overcast
12:13 AM 28.4°F 28.4°F 100% 29.82 in 1.8 miles Calm Calm - N/A   Overcast
12:18 AM 28.4°F 28.4°F 100% 29.82 in 2.5 miles Calm Calm - N/A   Overcast
12:23 AM 28.4°F 28.4°F 100% 29.82 in 3.0 miles Calm Calm - N/A   Overcast
12:33 AM 28.4°F 28.4°F 100% 29.82 in 2.5 miles Calm Calm - N/A   Overcast
12:38 AM 28.4°F 28.4°F 100% 29.82 in 1.5 miles Calm Calm - N/A   Overcast
12:43 AM 28.4°F 28.4°F 100% 29.82 in 1.2 miles Calm Calm - N/A   Overcast
12:48 AM 28.4°F 28.4°F 100% 29.82 in 1.2 miles Calm Calm - N/A   Overcast
12:53 AM 28.4°F 28.4°F 100% 29.82 in 1.2 miles Calm Calm - N/A   Overcast
12:58 AM 28.6°F 28.6°F 100% 29.82 in 1.2 miles Calm Calm - N/A   Overcast
1:03 AM 28.4°F 28.4°F 100% 29.82 in 1.8 miles South 2.3 mph - N/A   Overcast
1:08 AM 28.4°F 28.4°F 100% 29.82 in 2.0 miles SW 1.2 mph - N/A   Overcast
1:10 AM 28.4°F 28.4°F 100% 29.82 in 2.0 miles SSW 2.3 mph - N/A   Overcast
1:20 AM 28.4°F 28.4°F 100% 29.83 in 3.0 miles SW 4.6 mph - N/A   Overcast
1:25 AM 28.4°F 28.4°F 100% 29.83 in 2.0 miles SW 4.6 mph - N/A   Overcast
1:30 AM 28.4°F 28.4°F 100% 29.84 in 1.5 miles West 4.6 mph - N/A   Overcast
1:40 AM 28.4°F 28.4°F 100% 29.84 in 1.5 miles West 4.6 mph - N/A   Overcast
1:50 AM 28.4°F 28.4°F 100% 29.85 in 1.8 miles West 3.5 mph - N/A   Overcast
1:55 AM 28.4°F 28.4°F 100% 29.85 in 2.5 miles West 3.5 mph - N/A   Overcast
1:58 AM 28.6°F 28.6°F 100% 29.94 in 2.5 miles West 3.5 mph - 0.00 in   Overcast
2:08 AM 28.4°F 28.4°F 100% 29.85 in 1.2 miles WSW 3.5 mph - N/A   Overcast
2:13 AM 28.4°F 28.4°F 100% 29.85 in 1.0 miles West 3.5 mph - N/A   Mist
2:18 AM 28.4°F 28.4°F 100% 29.86 in 1.2 miles West 4.6 mph - N/A   Overcast
2:21 AM 28.4°F 28.4°F 100% 29.86 in 1.8 miles WNW 3.5 mph - N/A   Overcast
2:26 AM 28.4°F 28.4°F 100% 29.86 in 2.5 miles WNW 3.5 mph - N/A   Overcast
2:47 AM 28.4°F 28.4°F 100% 29.95 in 1.0 miles WNW 3.5 mph - N/A   Mist
2:55 AM 28.4°F 28.4°F 100% 29.87 in 1.0 miles NW 3.5 mph - N/A   Mist
2:58 AM 28.4°F 28.4°F 100% 29.96 in 1.0 miles NW 3.5 mph - 0.00 in   Mist
3:03 AM 28.4°F 28.4°F 100% 29.87 in 1.8 miles NW 2.3 mph - N/A   Overcast
3:06 AM 26.6°F 26.6°F 100% 29.87 in 4.0 miles West 2.3 mph - N/A   Overcast
3:15 AM 26.6°F 26.6°F 100% 29.88 in 2.5 miles NNW 2.3 mph - N/A   Overcast
3:25 AM 26.6°F 26.6°F 100% 29.88 in 1.5 miles WNW 2.3 mph - N/A   Overcast
3:30 AM 26.6°F 26.6°F 100% 29.88 in 1.2 miles NW 2.3 mph - N/A   Overcast
3:40 AM 26.6°F 26.6°F 100% 29.88 in 1.2 miles Variable 2.3 mph - N/A   Overcast
3:45 AM 26.6°F 26.6°F 100% 29.89 in 1.5 miles WNW 3.5 mph - N/A   Overcast
3:46 AM 26.6°F 26.6°F 100% 29.89 in 1.8 miles WNW 3.5 mph - N/A   Overcast
3:58 AM 27.1°F 27.1°F 100% 29.98 in 1.2 miles WSW 2.3 mph - 0.00 in   Overcast
4:03 AM 26.6°F 26.6°F 100% 29.89 in 1.0 miles WSW 3.5 mph - N/A   Mist
4:13 AM 26.6°F 26.6°F 100% 29.90 in 1.0 miles West 3.5 mph - N/A   Mist
4:14 AM 26.6°F 26.6°F 100% 29.90 in 1.0 miles WSW 2.3 mph - N/A   Mist
4:19 AM 26.6°F 26.6°F 100% 29.90 in 1.0 miles WSW 4.6 mph - N/A   Mist
4:24 AM 26.6°F 26.6°F 100% 29.90 in 1.0 miles West 4.6 mph - N/A   Mist
4:34 AM 26.6°F 26.6°F 100% 29.90 in 0.8 miles SW 4.6 mph - N/A   Mist
4:36 AM 26.6°F 26.6°F 100% 29.90 in 1.0 miles SW 4.6 mph - N/A   Light Freezing Drizzle
4:41 AM 26.6°F 26.6°F 100% 29.91 in 1.2 miles WSW 4.6 mph - N/A   Overcast
4:47 AM 26.6°F 26.6°F 100% 29.91 in 1.2 miles West 3.5 mph - N/A   Overcast
4:53 AM 26.6°F 26.6°F 100% 29.92 in 0.8 miles West 3.5 mph - N/A   Mist
4:58 AM 26.6°F 26.6°F 100% 30.01 in 0.8 miles West 2.3 mph - N/A   Mist
5:54 AM 24.8°F 24.8°F 100% 30.03 in 0.5 miles West 4.6 mph - N/A Fog Light Freezing Fog
5:58 AM 25.7°F 25.7°F 100% 30.03 in 0.5 miles WNW 3.5 mph - N/A Fog Light Freezing Fog
6:00 AM 24.8°F 24.8°F 100% 30.03 in 0.5 miles WNW 3.5 mph - N/A Fog Light Freezing Fog
6:20 AM 24.8°F 24.8°F 100% 29.96 in 0.8 miles West 3.5 mph - N/A   Mist
6:30 AM 24.8°F 24.8°F 100% 29.97 in 0.8 miles West 3.5 mph - N/A   Mist
6:35 AM 24.8°F 24.8°F 100% 29.96 in 1.0 miles WSW 4.6 mph - N/A   Mist
6:38 AM 24.8°F 24.8°F 100% 29.96 in 1.0 miles WSW 4.6 mph - N/A   Mist
6:39 AM 24.8°F 24.8°F 100% 29.96 in 1.0 miles WSW 4.6 mph - N/A   Mist
6:52 AM 24.8°F 24.8°F 100% 29.97 in 0.8 miles SW 4.6 mph - N/A   Mist
6:58 AM 24.8°F 24.8°F 100% 30.06 in 0.8 miles WSW 4.6 mph - N/A   Mist
7:14 AM 24.8°F 24.8°F 100% 30.08 in 0.5 miles WSW 5.8 mph - N/A Fog Light Freezing Fog
7:25 AM 24.8°F 24.8°F 100% 29.99 in 3.0 miles WSW 6.9 mph - N/A   Overcast
7:48 AM 24.8°F 24.8°F 100% 30.09 in 6.0 miles West 4.6 mph - N/A   Overcast
7:52 AM 24.8°F 24.8°F 100% 30.01 in 6.0 miles WSW 2.3 mph - N/A   Overcast
7:58 AM 24.8°F 24.8°F 100% 30.09 in 7.0 miles SW 2.3 mph - 0.00 in   Overcast
8:04 AM 24.8°F 24.8°F 100% 30.01 in 8.0 miles WSW 3.5 mph - N/A   Overcast
8:58 AM 24.8°F 24.8°F 100% 30.12 in 10.0 miles SW 4.6 mph - 0.00 in   Overcast
9:58 AM 26.4°F 26.4°F 100% 30.16 in 10.0 miles SW 4.6 mph - N/A   Mostly Cloudy
10:58 AM 29.3°F 29.3°F 100% 30.18 in 10.0 miles Variable 2.3 mph - N/A   Mostly Cloudy
11:00 AM 30.2°F 30.2°F 100% 30.10 in 10.0 miles West 2.3 mph - N/A   Mostly Cloudy
11:18 AM 32.0°F 32.0°F 100% 30.10 in 10.0 miles WSW 2.3 mph - N/A   Mostly Cloudy
11:58 AM 32.0°F 32.0°F 100% 30.19 in 10.0 miles West 4.6 mph - 0.00 in   Overcast
12:07 PM 32.0°F 32.0°F 100% 30.11 in 10.0 miles WSW 5.8 mph - N/A   Overcast
12:18 PM 32.0°F 32.0°F 100% 30.11 in 10.0 miles WSW 5.8 mph - N/A   Overcast
12:39 PM 32.0°F 32.0°F 100% 30.12 in 10.0 miles West 6.9 mph - N/A   Overcast
12:48 PM 32.0°F 32.0°F 100% 30.12 in 10.0 miles WSW 8.1 mph - N/A   Overcast
12:58 PM 32.5°F 32.5°F 100% 30.20 in 10.0 miles West 8.1 mph - 0.00 in   Overcast
1:58 PM 32.9°F 32.9°F 100% 30.21 in 10.0 miles West 6.9 mph - N/A   Overcast
2:12 PM 32.0°F 32.0°F 100% 30.13 in 10.0 miles SW 5.8 mph - N/A   Overcast
2:40 PM 32.0°F 32.0°F 100% 30.13 in 10.0 miles WSW 8.1 mph - N/A   Mostly Cloudy
2:47 PM 32.0°F 32.0°F 100% 30.13 in 10.0 miles WSW 6.9 mph - N/A   Mostly Cloudy
2:58 PM 33.3°F 33.3°F 100% 30.21 in 10.0 miles SW 5.8 mph - 0.00 in   Mostly Cloudy
3:15 PM 32.0°F 32.0°F 100% 30.13 in 10.0 miles SW 5.8 mph - N/A   Overcast
3:58 PM 32.7°F 32.7°F 100% 30.21 in 10.0 miles SSW 6.9 mph - 0.00 in   Overcast
4:27 PM 32.0°F 32.0°F 100% 30.13 in 10.0 miles SSW 8.1 mph - N/A   Overcast
4:52 PM 32.0°F 32.0°F 100% 30.13 in 10.0 miles SSW 6.9 mph - N/A   Mostly Cloudy
4:58 PM 32.0°F 32.0°F 100% 30.21 in 10.0 miles SSW 8.1 mph - 0.00 in   Mostly Cloudy
5:08 PM 32.0°F 32.0°F 100% 30.13 in 10.0 miles SSW 6.9 mph - N/A   Mostly Cloudy
5:13 PM 32.0°F 32.0°F 100% 30.13 in 10.0 miles South 8.1 mph - N/A   Mostly Cloudy
5:24 PM 32.0°F 32.0°F 100% 30.13 in 10.0 miles South 8.1 mph - N/A   Overcast
5:58 PM 31.1°F 31.1°F 100% 30.22 in 5.0 miles South 6.9 mph - 0.00 in Snow Light Snow
6:23 PM 32.0°F 32.0°F 100% 30.12 in 4.0 miles South 4.6 mph - N/A Snow Light Snow
6:28 PM 32.0°F 32.0°F 100% 30.12 in 5.0 miles South 3.5 mph - N/A Snow Light Snow
6:47 PM 32.0°F 32.0°F 100% 30.12 in 4.0 miles SSE 3.5 mph - N/A Snow Light Snow
6:58 PM 30.7°F 30.7°F 100% 30.20 in 3.0 miles SE 3.5 mph - 0.01 in Snow Light Snow
7:03 PM 32.0°F 32.0°F 100% 30.11 in 2.0 miles SSE 4.6 mph - N/A Snow Light Snow
7:13 PM 32.0°F 32.0°F 100% 30.10 in 2.5 miles SE 5.8 mph - N/A Snow Light Snow
7:18 PM 32.0°F 32.0°F 100% 30.10 in 3.0 miles ESE 4.6 mph - N/A Snow Light Snow
7:28 PM 32.0°F 32.0°F 100% 30.10 in 3.0 miles ESE 4.6 mph - N/A Snow Light Snow
7:58 PM 31.8°F 31.8°F 100% 30.19 in 3.0 miles East 4.6 mph - 0.02 in Snow Light Snow
8:03 PM 32.0°F 32.0°F 100% 30.10 in 2.5 miles East 5.8 mph - N/A Snow Light Snow
8:18 PM 32.0°F 32.0°F 100% 30.10 in 2.5 miles East 3.5 mph - N/A Snow Light Snow
8:23 PM 32.0°F 32.0°F 100% 30.09 in 3.0 miles East 5.8 mph - N/A Snow Light Snow
8:38 PM 32.0°F 32.0°F 100% 30.09 in 2.5 miles East 4.6 mph - N/A Snow Light Snow
8:58 PM 31.8°F 31.8°F 100% 30.19 in 2.5 miles ENE 2.3 mph - 0.01 in Snow Light Snow
9:03 PM 32.0°F 32.0°F 100% 30.10 in 3.0 miles ENE 2.3 mph - N/A Snow Light Snow
9:13 PM 32.0°F 32.0°F 100% 30.09 in 2.5 miles East 3.5 mph - N/A Snow Light Snow
9:18 PM 32.0°F 32.0°F 100% 30.09 in 3.0 miles East 3.5 mph - N/A Snow Light Snow
9:23 PM 32.0°F 32.0°F 100% 30.09 in 7.0 miles NE 2.3 mph - N/A Snow Light Snow
9:33 PM 32.0°F 32.0°F 100% 30.09 in 3.0 miles East 2.3 mph - N/A Snow Light Snow
9:43 PM 32.0°F 32.0°F 100% 30.08 in 2.5 miles Variable 1.2 mph - N/A Snow Light Snow
9:48 PM 32.0°F 32.0°F 100% 30.08 in 3.0 miles South 2.3 mph - N/A Snow Light Snow
9:53 PM 32.0°F 32.0°F 100% 30.08 in 4.0 miles South 2.3 mph - N/A Snow Light Snow
9:58 PM 32.4°F 32.4°F 100% 30.16 in 4.0 miles South 2.3 mph - 0.01 in Snow Light Snow
10:28 PM 32.0°F 32.0°F 100% 30.07 in 7.0 miles SSW 2.3 mph - N/A Rain Light Rain
10:48 PM 32.0°F 32.0°F 100% 30.08 in 10.0 miles SSW 4.6 mph - N/A Rain Light Rain
10:55 PM 32.0°F 32.0°F 100% 30.07 in 10.0 miles SSW 6.9 mph - N/A   Overcast
10:58 PM 33.3°F 33.3°F 100% 30.15 in 10.0 miles SSW 6.9 mph - 0.01 in   Overcast
11:53 PM 32.0°F 32.0°F 100% 30.08 in 10.0 miles SW 9.2 mph - N/A   Overcast
11:58 PM 33.6°F 33.6°F 100% 30.16 in 10.0 miles SW 12.7 mph - 0.00 in   Overcast
Moon Phase
Jan. 29 Feb. 03 Feb. 10 Feb. 17 Feb. 25
Sunrise:07:20 AM (PST) Moon Rise:08:06 PM (PST)1/29
Sunset:04:47 PM (PST) Moon Set:08:04 AM (PST)1/29

Copyright © 2014 The Weather Underground, Inc.